Regional Weather Roundup
Issued by NWS

Home | Current Version | Previous Version | Graphics & Text | Print | Product List | Glossary On
Versions: 1 2 3 4 5 6 7 8 9 10 11 12 13 14 15 16 17 18 19 20 21 22 23 24 25 26 27 28 29 30 31 32 33 34 35 36 37 38 39 40 41 42 43 44 45 46 47 48 49 50
000
ASUS44 KMEG 270400
RWRTN
TENNESSEE HOURLY STATE WEATHER ROUNDUP
NATIONAL WEATHER SERVICE MEMPHIS TN
1000 PM CST THU FEB 26 2015

TNZ002-004-019-021-049-052-054-088>092-270500-
WEST TENNESSEE

CITY           SKY/WX    TMP DP  RH WIND       PRES   REMARKS
MEMPHIS INTL   CLOUDY    28  17  63 NE12      30.40R WCI  18
NWS MEMPHIS      N/A     27 N/A N/A MISG        N/A
JACKSON        CLOUDY    27  17  66 N13       30.39R WCI  16
DYERSBURG      PTCLDY    25   7  46 N17G23    30.44R WCI  11
UNION CITY     CLEAR     21  16  79 N15       30.41R WCI   8
PARIS          CLOUDY    21  16  79 N10       30.38R WCI  10
LEXINGTON      CLOUDY    27  19  74 N9        30.34R WCI  17
SAVANNAH       CLOUDY    28  21  74 N10       30.34R WCI  19
$$

TNZ008-025-027-028-033-062-065-066-270500-
NORTH MIDDLE TENNESSEE

CITY           SKY/WX    TMP DP  RH WIND       PRES   REMARKS
NASHVILLE      CLOUDY    28  19  69 N13       30.33R WCI  17
CLARKSVILLE    MOCLDY    24  17  74 N14       30.37R WCI  12
COOKEVILLE     MOCLDY    30  23  74 N7        30.25R WCI  23
CROSSVILLE     CLOUDY    29  20  69 NW8G16    30.18R WCI  21
$$

TNZ061-075-076-078-094-096-097-270500-
SOUTH MIDDLE TENNESSEE

CITY           SKY/WX    TMP DP  RH WIND       PRES   REMARKS
FAYETTEVILLE   MOCLDY    28  21  74 N8          N/A  WCI  20
TULLAHOMA      MOCLDY    28  21  74 N15       30.26R WCI  17
WINCHESTER     CLOUDY    30  23  74 N8        30.26R WCI  23
COLUMBIA         N/A     28  28 100 N7        30.30R WCI  21
SHELBYVILLE    CLOUDY    30  25  80 N15       30.30R WCI  19
$$

TNZ017-018-042-046-047-270500-
NORTHEAST TENNESSEE

CITY           SKY/WX    TMP DP  RH WIND       PRES   REMARKS
TRI CITIES     PTCLDY    30  29  96 W7        30.15R WCI  23
ELIZABETHTON   CLOUDY    30  27  86 W3        30.14R
$$

TNZ012-013-036-069-073-074-270500-
CENTRAL EAST TENNESSEE

CITY           SKY/WX    TMP DP  RH WIND       PRES   REMARKS
KNOXVILLE      MOCLDY    32  29  88 CALM      30.19R
OAK RIDGE      CLOUDY    33  30  88 CALM      30.21R
GATLINBURG     CLOUDY    28  27  93 NW3       30.18R
$$

TNZ083-085-099-270500-
SOUTHEAST TENNESSEE

CITY           SKY/WX    TMP DP  RH WIND       PRES   REMARKS
CHATTANOOGA    CLEAR     32  27  81 CALM      30.21R
$$

SKY/WX REPORTED AS FAIR MEANS FEW OR NO CLOUDS BELOW
12 THOUSAND FEET.



USA.gov is the U.S. government's official web portal to all federal, state and local government web resources and services.